owner,sensor,date,latitude,longitude,vertical_datum,sea_water_practical_salinity,qcFlag 
ENP,ioos.station.NOAA.NDBC:DKKF1:1,2015-06-01T00:00:00Z,25.1800,-80.4900,1.5,40.6,11133222 
ENP,ioos.station.NOAA.NDBC:DKKF1:1,2015-06-01T01:00:00Z,25.1800,-80.4900,1.5,40.58,1111122 
ENP,ioos.station.NOAA.NDBC:DKKF1:1,2015-06-01T02:00:00Z,25.1800,-80.4900,1.5,40.6,1111122 
ENP,ioos.station.NOAA.NDBC:DKKF1:1,2015-06-01T03:00:00Z,25.1800,-80.4900,1.5,40.58,1111122 
ENP,ioos.station.NOAA.NDBC:DKKF1:1,2015-06-01T04:00:00Z,25.1800,-80.4900,1.5,40.58,1111122 
ENP,ioos.station.NOAA.NDBC:DKKF1:1,2015-06-01T05:00:00Z,25.1800,-80.4900,1.5,40.6,11133222 
ENP,ioos.station.NOAA.NDBC:DKKF1:1,2015-06-01T06:00:00Z,25.1800,-80.4900,1.5,40.58,1111122 
ENP,ioos.station.NOAA.NDBC:DKKF1:1,2015-06-01T07:00:00Z,25.1800,-80.4900,1.5,40.58,1111122 
ENP,ioos.station.NOAA.NDBC:DKKF1:1,2015-06-01T08:00:00Z,25.1800,-80.4900,1.5,40.6,11133222 
ENP,ioos.station.NOAA.NDBC:DKKF1:1,2015-06-01T09:00:00Z,25.1800,-80.4900,1.5,40.55,1111122 
ENP,ioos.station.NOAA.NDBC:DKKF1:1,2015-06-01T10:00:00Z,25.1800,-80.4900,1.5,40.55,1111122 
ENP,ioos.station.NOAA.NDBC:DKKF1:1,2015-06-01T11:00:00Z,25.1800,-80.4900,1.5,40.55,1111122 
ENP,ioos.station.NOAA.NDBC:DKKF1:1,2015-06-01T12:00:00Z,25.1800,-80.4900,1.5,40.54,1111122 
ENP,ioos.station.NOAA.NDBC:DKKF1:1,2015-06-01T13:00:00Z,25.1800,-80.4900,1.5,40.52,1111122 
ENP,ioos.station.NOAA.NDBC:DKKF1:1,2015-06-01T15:00:00Z,25.1800,-80.4900,1.5,40.52,1111122 
ENP,ioos.station.NOAA.NDBC:DKKF1:1,2015-06-01T16:00:00Z,25.1800,-80.4900,1.5,40.52,1111122 
ENP,ioos.station.NOAA.NDBC:DKKF1:1,2015-06-01T17:00:00Z,25.1800,-80.4900,1.5,40.51,1111122 
ENP,ioos.station.NOAA.NDBC:DKKF1:1,2015-06-01T18:00:00Z,25.1800,-80.4900,1.5,40.46,1111122 
ENP,ioos.station.NOAA.NDBC:DKKF1:1,2015-06-01T19:00:00Z,25.1800,-80.4900,1.5,40.5,11133222 
ENP,ioos.station.NOAA.NDBC:DKKF1:1,2015-06-01T20:00:00Z,25.1800,-80.4900,1.5,40.46,1111122 
ENP,ioos.station.NOAA.NDBC:DKKF1:1,2015-06-01T21:00:00Z,25.1800,-80.4900,1.5,40.45,1111122 
ENP,ioos.station.NOAA.NDBC:DKKF1:1,2015-06-01T22:00:00Z,25.1800,-80.4900,1.5,40.47,1111122 
ENP,ioos.station.NOAA.NDBC:DKKF1:1,2015-06-01T23:00:00Z,25.1800,-80.4900,1.5,40.5,11133222 
ENP,ioos.station.NOAA.NDBC:DKKF1:1,2015-06-02T00:00:00Z,25.1800,-80.4900,1.5,40.48,1111122 
ENP,ioos.station.NOAA.NDBC:DKKF1:1,2015-06-02T01:00:00Z,25.1800,-80.4900,1.5,40.5,11133222 
ENP,ioos.station.NOAA.NDBC:DKKF1:1,2015-06-02T02:00:00Z,25.1800,-80.4900,1.5,40.46,1111122 
ENP,ioos.station.NOAA.NDBC:DKKF1:1,2015-06-02T03:00:00Z,25.1800,-80.4900,1.5,40.44,1111122 
ENP,ioos.station.NOAA.NDBC:DKKF1:1,2015-06-02T04:00:00Z,25.1800,-80.4900,1.5,40.4,11133222 
ENP,ioos.station.NOAA.NDBC:DKKF1:1,2015-06-02T06:00:00Z,25.1800,-80.4900,1.5,40.4,11133222 
ENP,ioos.station.NOAA.NDBC:DKKF1:1,2015-06-02T07:00:00Z,25.1800,-80.4900,1.5,40.4,1111122 
ENP,ioos.station.NOAA.NDBC:DKKF1:1,2015-06-02T08:00:00Z,25.1800,-80.4900,1.5,40.4,11133222 
ENP,ioos.station.NOAA.NDBC:DKKF1:1,2015-06-02T09:00:00Z,25.1800,-80.4900,1.5,40.38,1111122 
ENP,ioos.station.NOAA.NDBC:DKKF1:1,2015-06-02T10:00:00Z,25.1800,-80.4900,1.5,40.39,1111122 
ENP,ioos.station.NOAA.NDBC:DKKF1:1,2015-06-02T11:00:00Z,25.1800,-80.4900,1.5,40.39,1111122 
ENP,ioos.station.NOAA.NDBC:DKKF1:1,2015-06-02T12:00:00Z,25.1800,-80.4900,1.5,40.4,1111122 
ENP,ioos.station.NOAA.NDBC:DKKF1:1,2015-06-02T13:00:00Z,25.1800,-80.4900,1.5,40.4,11133222 
ENP,ioos.station.NOAA.NDBC:DKKF1:1,2015-06-02T14:00:00Z,25.1800,-80.4900,1.5,40.45,1111122 
ENP,ioos.station.NOAA.NDBC:DKKF1:1,2015-06-02T15:00:00Z,25.1800,-80.4900,1.5,40.46,1111122 
ENP,ioos.station.NOAA.NDBC:DKKF1:1,2015-06-02T16:00:00Z,25.1800,-80.4900,1.5,40.48,1111122 
ENP,ioos.station.NOAA.NDBC:DKKF1:1,2015-06-02T17:00:00Z,25.1800,-80.4900,1.5,40.48,1111122 
ENP,ioos.station.NOAA.NDBC:DKKF1:1,2015-06-02T18:00:00Z,25.1800,-80.4900,1.5,40.48,1111122 
ENP,ioos.station.NOAA.NDBC:DKKF1:1,2015-06-02T20:00:00Z,25.1800,-80.4900,1.5,40.48,1111122 
ENP,ioos.station.NOAA.NDBC:DKKF1:1,2015-06-02T22:00:00Z,25.1800,-80.4900,1.5,40.48,1111122 
ENP,ioos.station.NOAA.NDBC:DKKF1:1,2015-06-02T23:00:00Z,25.1800,-80.4900,1.5,40.48,1111122 
ENP,ioos.station.NOAA.NDBC:DKKF1:1,2015-06-03T00:00:00Z,25.1800,-80.4900,1.5,40.5,11133222 
ENP,ioos.station.NOAA.NDBC:DKKF1:1,2015-06-03T01:00:00Z,25.1800,-80.4900,1.5,40.55,1111122 
ENP,ioos.station.NOAA.NDBC:DKKF1:1,2015-06-03T02:00:00Z,25.1800,-80.4900,1.5,40.58,1111122 
ENP,ioos.station.NOAA.NDBC:DKKF1:1,2015-06-03T03:00:00Z,25.1800,-80.4900,1.5,40.6,1111122 
ENP,ioos.station.NOAA.NDBC:DKKF1:1,2015-06-03T04:00:00Z,25.1800,-80.4900,1.5,40.6,11133222 
ENP,ioos.station.NOAA.NDBC:DKKF1:1,2015-06-03T06:00:00Z,25.1800,-80.4900,1.5,40.64,1111122 
ENP,ioos.station.NOAA.NDBC:DKKF1:1,2015-06-03T07:00:00Z,25.1800,-80.4900,1.5,40.63,1111122 
ENP,ioos.station.NOAA.NDBC:DKKF1:1,2015-06-03T08:00:00Z,25.1800,-80.4900,1.5,40.6,11133222 
ENP,ioos.station.NOAA.NDBC:DKKF1:1,2015-06-03T09:00:00Z,25.1800,-80.4900,1.5,40.63,1111122 
ENP,ioos.station.NOAA.NDBC:DKKF1:1,2015-06-03T10:00:00Z,25.1800,-80.4900,1.5,40.62,1111122 
ENP,ioos.station.NOAA.NDBC:DKKF1:1,2015-06-03T11:00:00Z,25.1800,-80.4900,1.5,40.6,11133222 
ENP,ioos.station.NOAA.NDBC:DKKF1:1,2015-06-03T12:00:00Z,25.1800,-80.4900,1.5,40.62,1111122 
ENP,ioos.station.NOAA.NDBC:DKKF1:1,2015-06-03T14:00:00Z,25.1800,-80.4900,1.5,40.63,1111122 
ENP,ioos.station.NOAA.NDBC:DKKF1:1,2015-06-03T15:00:00Z,25.1800,-80.4900,1.5,40.66,1111122 
ENP,ioos.station.NOAA.NDBC:DKKF1:1,2015-06-03T17:00:00Z,25.1800,-80.4900,1.5,40.67,1111122 
ENP,ioos.station.NOAA.NDBC:DKKF1:1,2015-06-03T18:00:00Z,25.1800,-80.4900,1.5,40.7,1111122 
ENP,ioos.station.NOAA.NDBC:DKKF1:1,2015-06-03T19:00:00Z,25.1800,-80.4900,1.5,40.7,11133222 
ENP,ioos.station.NOAA.NDBC:DKKF1:1,2015-06-03T20:00:00Z,25.1800,-80.4900,1.5,40.77,1111122 
ENP,ioos.station.NOAA.NDBC:DKKF1:1,2015-06-03T21:00:00Z,25.1800,-80.4900,1.5,40.8,11133222 
ENP,ioos.station.NOAA.NDBC:DKKF1:1,2015-06-03T22:00:00Z,25.1800,-80.4900,1.5,40.76,1111122 
ENP,ioos.station.NOAA.NDBC:DKKF1:1,2015-06-03T23:00:00Z,25.1800,-80.4900,1.5,40.76,1111122 
ENP,ioos.station.NOAA.NDBC:DKKF1:1,2015-06-04T01:00:00Z,25.1800,-80.4900,1.5,40.78,1111122 
ENP,ioos.station.NOAA.NDBC:DKKF1:1,2015-06-04T02:00:00Z,25.1800,-80.4900,1.5,40.78,1111122 
ENP,ioos.station.NOAA.NDBC:DKKF1:1,2015-06-04T03:00:00Z,25.1800,-80.4900,1.5,40.77,1111122 
ENP,ioos.station.NOAA.NDBC:DKKF1:1,2015-06-04T04:00:00Z,25.1800,-80.4900,1.5,40.8,11133222 
ENP,ioos.station.NOAA.NDBC:DKKF1:1,2015-06-04T06:00:00Z,25.1800,-80.4900,1.5,40.77,1111122 
ENP,ioos.station.NOAA.NDBC:DKKF1:1,2015-06-04T07:00:00Z,25.1800,-80.4900,1.5,40.77,1111122 
ENP,ioos.station.NOAA.NDBC:DKKF1:1,2015-06-04T08:00:00Z,25.1800,-80.4900,1.5,40.8,11133222 
ENP,ioos.station.NOAA.NDBC:DKKF1:1,2015-06-04T09:00:00Z,25.1800,-80.4900,1.5,40.77,1111122 
ENP,ioos.station.NOAA.NDBC:DKKF1:1,2015-06-04T10:00:00Z,25.1800,-80.4900,1.5,40.78,1111122 
ENP,ioos.station.NOAA.NDBC:DKKF1:1,2015-06-04T12:00:00Z,25.1800,-80.4900,1.5,40.76,1111122 
ENP,ioos.station.NOAA.NDBC:DKKF1:1,2015-06-04T13:00:00Z,25.1800,-80.4900,1.5,40.62,1111122 
ENP,ioos.station.NOAA.NDBC:DKKF1:1,2015-06-04T15:00:00Z,25.1800,-80.4900,1.5,40.77,1111122 
ENP,ioos.station.NOAA.NDBC:DKKF1:1,2015-06-04T16:00:00Z,25.1800,-80.4900,1.5,40.8,11133222 
ENP,ioos.station.NOAA.NDBC:DKKF1:1,2015-06-04T17:00:00Z,25.1800,-80.4900,1.5,40.8,1111122 
ENP,ioos.station.NOAA.NDBC:DKKF1:1,2015-06-04T18:00:00Z,25.1800,-80.4900,1.5,40.83,1111122 
ENP,ioos.station.NOAA.NDBC:DKKF1:1,2015-06-04T19:00:00Z,25.1800,-80.4900,1.5,40.9,11133222 
ENP,ioos.station.NOAA.NDBC:DKKF1:1,2015-06-04T20:00:00Z,25.1800,-80.4900,1.5,40.9,11133222 
ENP,ioos.station.NOAA.NDBC:DKKF1:1,2015-06-04T21:00:00Z,25.1800,-80.4900,1.5,40.9,11133222 
ENP,ioos.station.NOAA.NDBC:DKKF1:1,2015-06-04T22:00:00Z,25.1800,-80.4900,1.5,40.9,11133222 
ENP,ioos.station.NOAA.NDBC:DKKF1:1,2015-06-05T00:00:00Z,25.1800,-80.4900,1.5,41.0,11133222 
ENP,ioos.station.NOAA.NDBC:DKKF1:1,2015-06-05T01:00:00Z,25.1800,-80.4900,1.5,41.0,11133222 
ENP,ioos.station.NOAA.NDBC:DKKF1:1,2015-06-05T02:00:00Z,25.1800,-80.4900,1.5,41.0,11133222 
ENP,ioos.station.NOAA.NDBC:DKKF1:1,2015-06-05T03:00:00Z,25.1800,-80.4900,1.5,40.9,11133222 
ENP,ioos.station.NOAA.NDBC:DKKF1:1,2015-06-05T04:00:00Z,25.1800,-80.4900,1.5,40.9,11133222 
ENP,ioos.station.NOAA.NDBC:DKKF1:1,2015-06-05T06:00:00Z,25.1800,-80.4900,1.5,40.9,11133222 
ENP,ioos.station.NOAA.NDBC:DKKF1:1,2015-06-05T07:00:00Z,25.1800,-80.4900,1.5,40.9,11133222 
ENP,ioos.station.NOAA.NDBC:DKKF1:1,2015-06-05T08:00:00Z,25.1800,-80.4900,1.5,40.9,11133222 
ENP,ioos.station.NOAA.NDBC:DKKF1:1,2015-06-05T09:00:00Z,25.1800,-80.4900,1.5,40.9,11133222 
ENP,ioos.station.NOAA.NDBC:DKKF1:1,2015-06-05T10:00:00Z,25.1800,-80.4900,1.5,40.9,11133222 
ENP,ioos.station.NOAA.NDBC:DKKF1:1,2015-06-05T11:00:00Z,25.1800,-80.4900,1.5,40.9,11133222 
ENP,ioos.station.NOAA.NDBC:DKKF1:1,2015-06-05T12:00:00Z,25.1800,-80.4900,1.5,40.89,1111122 
ENP,ioos.station.NOAA.NDBC:DKKF1:1,2015-06-05T13:00:00Z,25.1800,-80.4900,1.5,40.88,1111122 
ENP,ioos.station.NOAA.NDBC:DKKF1:1,2015-06-05T14:00:00Z,25.1800,-80.4900,1.5,40.87,1111122 
ENP,ioos.station.NOAA.NDBC:DKKF1:1,2015-06-05T15:00:00Z,25.1800,-80.4900,1.5,40.9,11133222 
ENP,ioos.station.NOAA.NDBC:DKKF1:1,2015-06-05T16:00:00Z,25.1800,-80.4900,1.5,40.88,1111122 
ENP,ioos.station.NOAA.NDBC:DKKF1:1,2015-06-05T17:00:00Z,25.1800,-80.4900,1.5,40.89,1111122 
ENP,ioos.station.NOAA.NDBC:DKKF1:1,2015-06-05T18:00:00Z,25.1800,-80.4900,1.5,40.89,1111122 
ENP,ioos.station.NOAA.NDBC:DKKF1:1,2015-06-05T19:00:00Z,25.1800,-80.4900,1.5,40.9,11133222 
ENP,ioos.station.NOAA.NDBC:DKKF1:1,2015-06-05T20:00:00Z,25.1800,-80.4900,1.5,40.92,1111122 
ENP,ioos.station.NOAA.NDBC:DKKF1:1,2015-06-05T21:00:00Z,25.1800,-80.4900,1.5,40.9,11133222 
ENP,ioos.station.NOAA.NDBC:DKKF1:1,2015-06-05T22:00:00Z,25.1800,-80.4900,1.5,40.92,1111122 
ENP,ioos.station.NOAA.NDBC:DKKF1:1,2015-06-05T23:00:00Z,25.1800,-80.4900,1.5,40.92,1111122 
ENP,ioos.station.NOAA.NDBC:DKKF1:1,2015-06-06T00:00:00Z,25.1800,-80.4900,1.5,40.9,11133222 
ENP,ioos.station.NOAA.NDBC:DKKF1:1,2015-06-06T01:00:00Z,25.1800,-80.4900,1.5,40.95,1111122 
ENP,ioos.station.NOAA.NDBC:DKKF1:1,2015-06-06T02:00:00Z,25.1800,-80.4900,1.5,41.0,11133222 
ENP,ioos.station.NOAA.NDBC:DKKF1:1,2015-06-06T03:00:00Z,25.1800,-80.4900,1.5,40.98,1111122 
ENP,ioos.station.NOAA.NDBC:DKKF1:1,2015-06-06T04:00:00Z,25.1800,-80.4900,1.5,40.98,1111122 
ENP,ioos.station.NOAA.NDBC:DKKF1:1,2015-06-06T05:00:00Z,25.1800,-80.4900,1.5,41.0,11133222 
ENP,ioos.station.NOAA.NDBC:DKKF1:1,2015-06-06T06:00:00Z,25.1800,-80.4900,1.5,40.97,1111122 
ENP,ioos.station.NOAA.NDBC:DKKF1:1,2015-06-06T07:00:00Z,25.1800,-80.4900,1.5,40.96,1111122 
ENP,ioos.station.NOAA.NDBC:DKKF1:1,2015-06-06T08:00:00Z,25.1800,-80.4900,1.5,41.0,11133222 
ENP,ioos.station.NOAA.NDBC:DKKF1:1,2015-06-06T09:00:00Z,25.1800,-80.4900,1.5,40.95,1111122 
ENP,ioos.station.NOAA.NDBC:DKKF1:1,2015-06-06T10:00:00Z,25.1800,-80.4900,1.5,40.92,1111122 
ENP,ioos.station.NOAA.NDBC:DKKF1:1,2015-06-06T11:00:00Z,25.1800,-80.4900,1.5,40.91,1111122 
ENP,ioos.station.NOAA.NDBC:DKKF1:1,2015-06-06T12:00:00Z,25.1800,-80.4900,1.5,40.9,1111122 
ENP,ioos.station.NOAA.NDBC:DKKF1:1,2015-06-06T13:00:00Z,25.1800,-80.4900,1.5,40.9,11133222 
ENP,ioos.station.NOAA.NDBC:DKKF1:1,2015-06-06T14:00:00Z,25.1800,-80.4900,1.5,40.89,1111122 
ENP,ioos.station.NOAA.NDBC:DKKF1:1,2015-06-06T15:00:00Z,25.1800,-80.4900,1.5,40.89,1111122 
ENP,ioos.station.NOAA.NDBC:DKKF1:1,2015-06-06T16:00:00Z,25.1800,-80.4900,1.5,40.89,1111122 
ENP,ioos.station.NOAA.NDBC:DKKF1:1,2015-06-06T17:00:00Z,25.1800,-80.4900,1.5,40.89,1111122 
ENP,ioos.station.NOAA.NDBC:DKKF1:1,2015-06-06T18:00:00Z,25.1800,-80.4900,1.5,40.92,1111122 
ENP,ioos.station.NOAA.NDBC:DKKF1:1,2015-06-06T19:00:00Z,25.1800,-80.4900,1.5,40.95,1111122 
ENP,ioos.station.NOAA.NDBC:DKKF1:1,2015-06-06T20:00:00Z,25.1800,-80.4900,1.5,40.95,1111122 
ENP,ioos.station.NOAA.NDBC:DKKF1:1,2015-06-06T21:00:00Z,25.1800,-80.4900,1.5,41.0,11133222 
ENP,ioos.station.NOAA.NDBC:DKKF1:1,2015-06-06T22:00:00Z,25.1800,-80.4900,1.5,40.96,1111122 
ENP,ioos.station.NOAA.NDBC:DKKF1:1,2015-06-06T23:00:00Z,25.1800,-80.4900,1.5,40.97,1111122 
ENP,ioos.station.NOAA.NDBC:DKKF1:1,2015-06-07T00:00:00Z,25.1800,-80.4900,1.5,40.91,1111122 
ENP,ioos.station.NOAA.NDBC:DKKF1:1,2015-06-07T01:00:00Z,25.1800,-80.4900,1.5,40.91,1111122 
ENP,ioos.station.NOAA.NDBC:DKKF1:1,2015-06-07T02:00:00Z,25.1800,-80.4900,1.5,40.91,1111122 
ENP,ioos.station.NOAA.NDBC:DKKF1:1,2015-06-07T04:00:00Z,25.1800,-80.4900,1.5,40.9,1111122 
ENP,ioos.station.NOAA.NDBC:DKKF1:1,2015-06-07T05:00:00Z,25.1800,-80.4900,1.5,40.9,11133222 
ENP,ioos.station.NOAA.NDBC:DKKF1:1,2015-06-07T06:00:00Z,25.1800,-80.4900,1.5,40.91,1111122 
ENP,ioos.station.NOAA.NDBC:DKKF1:1,2015-06-07T07:00:00Z,25.1800,-80.4900,1.5,40.91,1111122 
ENP,ioos.station.NOAA.NDBC:DKKF1:1,2015-06-07T09:00:00Z,25.1800,-80.4900,1.5,40.91,1111122 
ENP,ioos.station.NOAA.NDBC:DKKF1:1,2015-06-07T10:00:00Z,25.1800,-80.4900,1.5,40.91,1111122 
ENP,ioos.station.NOAA.NDBC:DKKF1:1,2015-06-07T11:00:00Z,25.1800,-80.4900,1.5,40.91,1111122 
ENP,ioos.station.NOAA.NDBC:DKKF1:1,2015-06-07T12:00:00Z,25.1800,-80.4900,1.5,40.92,1111122 
ENP,ioos.station.NOAA.NDBC:DKKF1:1,2015-06-07T13:00:00Z,25.1800,-80.4900,1.5,40.9,11133222 
ENP,ioos.station.NOAA.NDBC:DKKF1:1,2015-06-07T14:00:00Z,25.1800,-80.4900,1.5,40.91,1111122 
ENP,ioos.station.NOAA.NDBC:DKKF1:1,2015-06-07T15:00:00Z,25.1800,-80.4900,1.5,40.92,1111122 
ENP,ioos.station.NOAA.NDBC:DKKF1:1,2015-06-07T17:00:00Z,25.1800,-80.4900,1.5,40.95,1111122 
ENP,ioos.station.NOAA.NDBC:DKKF1:1,2015-06-07T18:00:00Z,25.1800,-80.4900,1.5,40.98,1111122 
ENP,ioos.station.NOAA.NDBC:DKKF1:1,2015-06-07T19:00:00Z,25.1800,-80.4900,1.5,41.0,1111122 
ENP,ioos.station.NOAA.NDBC:DKKF1:1,2015-06-07T20:00:00Z,25.1800,-80.4900,1.5,40.77,1111122 
ENP,ioos.station.NOAA.NDBC:DKKF1:1,2015-06-07T22:00:00Z,25.1800,-80.4900,1.5,41.07,1111122 
ENP,ioos.station.NOAA.NDBC:DKKF1:1,2015-06-07T23:00:00Z,25.1800,-80.4900,1.5,41.07,1111122 
ENP,ioos.station.NOAA.NDBC:DKKF1:1,2015-06-08T00:00:00Z,25.1800,-80.4900,1.5,41.07,1111122 
ENP,ioos.station.NOAA.NDBC:DKKF1:1,2015-06-08T01:00:00Z,25.1800,-80.4900,1.5,41.06,1111122 
ENP,ioos.station.NOAA.NDBC:DKKF1:1,2015-06-08T02:00:00Z,25.1800,-80.4900,1.5,41.05,1111122 
ENP,ioos.station.NOAA.NDBC:DKKF1:1,2015-06-08T03:00:00Z,25.1800,-80.4900,1.5,41.1,11133222 
ENP,ioos.station.NOAA.NDBC:DKKF1:1,2015-06-08T04:00:00Z,25.1800,-80.4900,1.5,41.05,1111122 
ENP,ioos.station.NOAA.NDBC:DKKF1:1,2015-06-08T05:00:00Z,25.1800,-80.4900,1.5,41.1,11133222 
ENP,ioos.station.NOAA.NDBC:DKKF1:1,2015-06-08T06:00:00Z,25.1800,-80.4900,1.5,41.08,1111122 
ENP,ioos.station.NOAA.NDBC:DKKF1:1,2015-06-08T07:00:00Z,25.1800,-80.4900,1.5,41.07,1111122 
ENP,ioos.station.NOAA.NDBC:DKKF1:1,2015-06-08T08:00:00Z,25.1800,-80.4900,1.5,41.07,1111122 
ENP,ioos.station.NOAA.NDBC:DKKF1:1,2015-06-08T09:00:00Z,25.1800,-80.4900,1.5,41.1,11133222 
ENP,ioos.station.NOAA.NDBC:DKKF1:1,2015-06-08T10:00:00Z,25.1800,-80.4900,1.5,41.08,1111122 
ENP,ioos.station.NOAA.NDBC:DKKF1:1,2015-06-08T11:00:00Z,25.1800,-80.4900,1.5,41.09,1111122 
ENP,ioos.station.NOAA.NDBC:DKKF1:1,2015-06-08T12:00:00Z,25.1800,-80.4900,1.5,41.1,1111122 
ENP,ioos.station.NOAA.NDBC:DKKF1:1,2015-06-08T13:00:00Z,25.1800,-80.4900,1.5,41.1,1111122 
ENP,ioos.station.NOAA.NDBC:DKKF1:1,2015-06-08T14:00:00Z,25.1800,-80.4900,1.5,41.11,1111122 
ENP,ioos.station.NOAA.NDBC:DKKF1:1,2015-06-08T15:00:00Z,25.1800,-80.4900,1.5,41.1,11133222 
ENP,ioos.station.NOAA.NDBC:DKKF1:1,2015-06-08T16:00:00Z,25.1800,-80.4900,1.5,41.14,1111122 
ENP,ioos.station.NOAA.NDBC:DKKF1:1,2015-06-08T17:00:00Z,25.1800,-80.4900,1.5,41.1,11133222 
ENP,ioos.station.NOAA.NDBC:DKKF1:1,2015-06-08T18:00:00Z,25.1800,-80.4900,1.5,41.21,1111122 
ENP,ioos.station.NOAA.NDBC:DKKF1:1,2015-06-08T19:00:00Z,25.1800,-80.4900,1.5,41.1,11133222 
ENP,ioos.station.NOAA.NDBC:DKKF1:1,2015-06-08T20:00:00Z,25.1800,-80.4900,1.5,41.11,1111122 
ENP,ioos.station.NOAA.NDBC:DKKF1:1,2015-06-08T21:00:00Z,25.1800,-80.4900,1.5,41.2,11133222 
ENP,ioos.station.NOAA.NDBC:DKKF1:1,2015-06-08T22:00:00Z,25.1800,-80.4900,1.5,41.27,1111122 
ENP,ioos.station.NOAA.NDBC:DKKF1:1,2015-06-08T23:00:00Z,25.1800,-80.4900,1.5,41.29,1111122 
ENP,ioos.station.NOAA.NDBC:DKKF1:1,2015-06-09T01:00:00Z,25.1800,-80.4900,1.5,41.27,1111122 
ENP,ioos.station.NOAA.NDBC:DKKF1:1,2015-06-09T02:00:00Z,25.1800,-80.4900,1.5,41.29,1111122 
ENP,ioos.station.NOAA.NDBC:DKKF1:1,2015-06-09T03:00:00Z,25.1800,-80.4900,1.5,41.28,1111122 
ENP,ioos.station.NOAA.NDBC:DKKF1:1,2015-06-09T04:00:00Z,25.1800,-80.4900,1.5,41.3,11133222 
ENP,ioos.station.NOAA.NDBC:DKKF1:1,2015-06-09T05:00:00Z,25.1800,-80.4900,1.5,41.3,11133222 
ENP,ioos.station.NOAA.NDBC:DKKF1:1,2015-06-09T06:00:00Z,25.1800,-80.4900,1.5,41.25,1111122 
ENP,ioos.station.NOAA.NDBC:DKKF1:1,2015-06-09T07:00:00Z,25.1800,-80.4900,1.5,41.25,1111122 
ENP,ioos.station.NOAA.NDBC:DKKF1:1,2015-06-09T08:00:00Z,25.1800,-80.4900,1.5,41.25,1111122 
ENP,ioos.station.NOAA.NDBC:DKKF1:1,2015-06-09T09:00:00Z,25.1800,-80.4900,1.5,41.2,11133222 
ENP,ioos.station.NOAA.NDBC:DKKF1:1,2015-06-09T10:00:00Z,25.1800,-80.4900,1.5,41.22,1111122 
ENP,ioos.station.NOAA.NDBC:DKKF1:1,2015-06-09T12:00:00Z,25.1800,-80.4900,1.5,41.2,1111122 
ENP,ioos.station.NOAA.NDBC:DKKF1:1,2015-06-09T14:00:00Z,25.1800,-80.4900,1.5,41.18,1111122 
ENP,ioos.station.NOAA.NDBC:DKKF1:1,2015-06-09T15:00:00Z,25.1800,-80.4900,1.5,41.2,11133222 
ENP,ioos.station.NOAA.NDBC:DKKF1:1,2015-06-09T16:00:00Z,25.1800,-80.4900,1.5,41.18,1111122 
ENP,ioos.station.NOAA.NDBC:DKKF1:1,2015-06-09T17:00:00Z,25.1800,-80.4900,1.5,41.2,11133222 
ENP,ioos.station.NOAA.NDBC:DKKF1:1,2015-06-09T18:00:00Z,25.1800,-80.4900,1.5,41.23,1111122 
ENP,ioos.station.NOAA.NDBC:DKKF1:1,2015-06-09T19:00:00Z,25.1800,-80.4900,1.5,41.23,1111122 
ENP,ioos.station.NOAA.NDBC:DKKF1:1,2015-06-09T20:00:00Z,25.1800,-80.4900,1.5,41.13,1111122 
ENP,ioos.station.NOAA.NDBC:DKKF1:1,2015-06-09T21:00:00Z,25.1800,-80.4900,1.5,41.1,11133222 
ENP,ioos.station.NOAA.NDBC:DKKF1:1,2015-06-09T22:00:00Z,25.1800,-80.4900,1.5,41.28,1111122 
ENP,ioos.station.NOAA.NDBC:DKKF1:1,2015-06-10T00:00:00Z,25.1800,-80.4900,1.5,41.29,1111122 
ENP,ioos.station.NOAA.NDBC:DKKF1:1,2015-06-10T01:00:00Z,25.1800,-80.4900,1.5,41.3,11133222 
ENP,ioos.station.NOAA.NDBC:DKKF1:1,2015-06-10T02:00:00Z,25.1800,-80.4900,1.5,41.28,1111122 
ENP,ioos.station.NOAA.NDBC:DKKF1:1,2015-06-10T03:00:00Z,25.1800,-80.4900,1.5,41.3,11133222 
ENP,ioos.station.NOAA.NDBC:DKKF1:1,2015-06-10T04:00:00Z,25.1800,-80.4900,1.5,41.26,1111122 
ENP,ioos.station.NOAA.NDBC:DKKF1:1,2015-06-10T06:00:00Z,25.1800,-80.4900,1.5,41.23,1111122 
ENP,ioos.station.NOAA.NDBC:DKKF1:1,2015-06-10T07:00:00Z,25.1800,-80.4900,1.5,41.24,1111122 
ENP,ioos.station.NOAA.NDBC:DKKF1:1,2015-06-10T08:00:00Z,25.1800,-80.4900,1.5,41.2,11133222 
ENP,ioos.station.NOAA.NDBC:DKKF1:1,2015-06-10T09:00:00Z,25.1800,-80.4900,1.5,41.23,1111122 
ENP,ioos.station.NOAA.NDBC:DKKF1:1,2015-06-10T10:00:00Z,25.1800,-80.4900,1.5,41.22,1111122 
ENP,ioos.station.NOAA.NDBC:DKKF1:1,2015-06-10T11:00:00Z,25.1800,-80.4900,1.5,41.21,1111122 
ENP,ioos.station.NOAA.NDBC:DKKF1:1,2015-06-10T12:00:00Z,25.1800,-80.4900,1.5,41.21,1111122 
ENP,ioos.station.NOAA.NDBC:DKKF1:1,2015-06-10T13:00:00Z,25.1800,-80.4900,1.5,41.2,1111122 
ENP,ioos.station.NOAA.NDBC:DKKF1:1,2015-06-10T14:00:00Z,25.1800,-80.4900,1.5,41.18,1111122 
ENP,ioos.station.NOAA.NDBC:DKKF1:1,2015-06-10T16:00:00Z,25.1800,-80.4900,1.5,41.24,1111122 
ENP,ioos.station.NOAA.NDBC:DKKF1:1,2015-06-10T17:00:00Z,25.1800,-80.4900,1.5,41.3,11133222 
ENP,ioos.station.NOAA.NDBC:DKKF1:1,2015-06-10T18:00:00Z,25.1800,-80.4900,1.5,41.3,1111122 
ENP,ioos.station.NOAA.NDBC:DKKF1:1,2015-06-10T19:00:00Z,25.1800,-80.4900,1.5,41.4,11133222 
ENP,ioos.station.NOAA.NDBC:DKKF1:1,2015-06-10T20:00:00Z,25.1800,-80.4900,1.5,41.4,1111122 
ENP,ioos.station.NOAA.NDBC:DKKF1:1,2015-06-10T22:00:00Z,25.1800,-80.4900,1.5,41.44,1111122 
ENP,ioos.station.NOAA.NDBC:DKKF1:1,2015-06-11T00:00:00Z,25.1800,-80.4900,1.5,41.42,1111122 
ENP,ioos.station.NOAA.NDBC:DKKF1:1,2015-06-11T02:00:00Z,25.1800,-80.4900,1.5,41.41,1111122 
ENP,ioos.station.NOAA.NDBC:DKKF1:1,2015-06-11T03:00:00Z,25.1800,-80.4900,1.5,41.4,1111122 
ENP,ioos.station.NOAA.NDBC:DKKF1:1,2015-06-11T04:00:00Z,25.1800,-80.4900,1.5,41.4,11133222 
ENP,ioos.station.NOAA.NDBC:DKKF1:1,2015-06-11T06:00:00Z,25.1800,-80.4900,1.5,41.4,11133222 
ENP,ioos.station.NOAA.NDBC:DKKF1:1,2015-06-11T07:00:00Z,25.1800,-80.4900,1.5,41.43,1111122 
ENP,ioos.station.NOAA.NDBC:DKKF1:1,2015-06-11T08:00:00Z,25.1800,-80.4900,1.5,41.41,1111122 
ENP,ioos.station.NOAA.NDBC:DKKF1:1,2015-06-11T09:00:00Z,25.1800,-80.4900,1.5,41.43,1111122 
ENP,ioos.station.NOAA.NDBC:DKKF1:1,2015-06-11T10:00:00Z,25.1800,-80.4900,1.5,41.43,1111122 
ENP,ioos.station.NOAA.NDBC:DKKF1:1,2015-06-11T11:00:00Z,25.1800,-80.4900,1.5,41.43,1111122 
ENP,ioos.station.NOAA.NDBC:DKKF1:1,2015-06-11T15:00:00Z,25.1800,-80.4900,1.5,41.43,1111122 
ENP,ioos.station.NOAA.NDBC:DKKF1:1,2015-06-11T16:00:00Z,25.1800,-80.4900,1.5,41.45,1111122 
ENP,ioos.station.NOAA.NDBC:DKKF1:1,2015-06-11T17:00:00Z,25.1800,-80.4900,1.5,41.46,1111122 
ENP,ioos.station.NOAA.NDBC:DKKF1:1,2015-06-11T18:00:00Z,25.1800,-80.4900,1.5,41.49,1111122 
ENP,ioos.station.NOAA.NDBC:DKKF1:1,2015-06-11T19:00:00Z,25.1800,-80.4900,1.5,41.51,1111122 
ENP,ioos.station.NOAA.NDBC:DKKF1:1,2015-06-11T22:00:00Z,25.1800,-80.4900,1.5,41.57,1111122 
ENP,ioos.station.NOAA.NDBC:DKKF1:1,2015-06-12T00:00:00Z,25.1800,-80.4900,1.5,41.58,1111122 
ENP,ioos.station.NOAA.NDBC:DKKF1:1,2015-06-12T01:00:00Z,25.1800,-80.4900,1.5,41.58,1111122 
ENP,ioos.station.NOAA.NDBC:DKKF1:1,2015-06-12T02:00:00Z,25.1800,-80.4900,1.5,41.59,1111122 
ENP,ioos.station.NOAA.NDBC:DKKF1:1,2015-06-12T03:00:00Z,25.1800,-80.4900,1.5,41.59,1111122 
ENP,ioos.station.NOAA.NDBC:DKKF1:1,2015-06-12T04:00:00Z,25.1800,-80.4900,1.5,41.6,11133222 
ENP,ioos.station.NOAA.NDBC:DKKF1:1,2015-06-12T05:00:00Z,25.1800,-80.4900,1.5,41.6,11133222 
ENP,ioos.station.NOAA.NDBC:DKKF1:1,2015-06-12T06:00:00Z,25.1800,-80.4900,1.5,41.53,1111122 
ENP,ioos.station.NOAA.NDBC:DKKF1:1,2015-06-12T08:00:00Z,25.1800,-80.4900,1.5,41.5,11133222 
ENP,ioos.station.NOAA.NDBC:DKKF1:1,2015-06-12T09:00:00Z,25.1800,-80.4900,1.5,41.42,1111122 
ENP,ioos.station.NOAA.NDBC:DKKF1:1,2015-06-12T10:00:00Z,25.1800,-80.4900,1.5,41.4,1111122 
ENP,ioos.station.NOAA.NDBC:DKKF1:1,2015-06-12T11:00:00Z,25.1800,-80.4900,1.5,41.39,1111122 
ENP,ioos.station.NOAA.NDBC:DKKF1:1,2015-06-12T12:00:00Z,25.1800,-80.4900,1.5,41.39,1111122 
ENP,ioos.station.NOAA.NDBC:DKKF1:1,2015-06-12T14:00:00Z,25.1800,-80.4900,1.5,41.43,1111122 
ENP,ioos.station.NOAA.NDBC:DKKF1:1,2015-06-12T15:00:00Z,25.1800,-80.4900,1.5,41.4,11133222 
ENP,ioos.station.NOAA.NDBC:DKKF1:1,2015-06-12T16:00:00Z,25.1800,-80.4900,1.5,41.46,1111122 
ENP,ioos.station.NOAA.NDBC:DKKF1:1,2015-06-12T17:00:00Z,25.1800,-80.4900,1.5,41.49,1111122 
ENP,ioos.station.NOAA.NDBC:DKKF1:1,2015-06-12T18:00:00Z,25.1800,-80.4900,1.5,41.5,1111122 
ENP,ioos.station.NOAA.NDBC:DKKF1:1,2015-06-12T19:00:00Z,25.1800,-80.4900,1.5,41.5,11133222 
ENP,ioos.station.NOAA.NDBC:DKKF1:1,2015-06-12T20:00:00Z,25.1800,-80.4900,1.5,41.51,1111122 
ENP,ioos.station.NOAA.NDBC:DKKF1:1,2015-06-12T21:00:00Z,25.1800,-80.4900,1.5,41.53,1111122 
ENP,ioos.station.NOAA.NDBC:DKKF1:1,2015-06-12T22:00:00Z,25.1800,-80.4900,1.5,41.5,11133222 
ENP,ioos.station.NOAA.NDBC:DKKF1:1,2015-06-12T23:00:00Z,25.1800,-80.4900,1.5,41.47,1111122 
ENP,ioos.station.NOAA.NDBC:DKKF1:1,2015-06-13T00:00:00Z,25.1800,-80.4900,1.5,41.4,11133222 
ENP,ioos.station.NOAA.NDBC:DKKF1:1,2015-06-13T01:00:00Z,25.1800,-80.4900,1.5,41.43,1111122 
ENP,ioos.station.NOAA.NDBC:DKKF1:1,2015-06-13T02:00:00Z,25.1800,-80.4900,1.5,41.45,1111122 
ENP,ioos.station.NOAA.NDBC:DKKF1:1,2015-06-13T03:00:00Z,25.1800,-80.4900,1.5,41.45,1111122 
ENP,ioos.station.NOAA.NDBC:DKKF1:1,2015-06-13T04:00:00Z,25.1800,-80.4900,1.5,41.46,1111122 
ENP,ioos.station.NOAA.NDBC:DKKF1:1,2015-06-13T05:00:00Z,25.1800,-80.4900,1.5,41.5,11133222 
ENP,ioos.station.NOAA.NDBC:DKKF1:1,2015-06-13T06:00:00Z,25.1800,-80.4900,1.5,41.42,1111122 